Regional Weather Roundup
Issued by NWS

Home | Current Version | Previous Version | Text Only | Print | Product List | Glossary Off
Versions: 1 2 3 4 5 6 7 8 9 10 11 12 13 14 15 16 17 18 19 20 21 22 23 24 25 26 27 28 29 30 31 32 33 34 35 36 37 38 39 40 41 42 43 44 45 46 47 48 49 50

000
ASUS43 KLOT 260410
RWRIL

ILLINOIS REGIONAL WEATHER ROUNDUP
NATIONAL WEATHER SERVICE CHICAGO/ROMEOVILLE IL
1000 PM CST TUE NOV 25 2014

NOTE: "FAIR" INDICATES FEW OR NO CLOUDS BELOW 12,000 FEET WITH NO
SIGNIFICANT WEATHER AND/OR OBSTRUCTIONS TO VISIBILITY.

* THESE STATIONS ARE NOT UNDER NWS QUALITY CONTROL. THEY ALSO MAY NOT
  REPORT WEATHER SUCH AS PRECIPITATION OR FOG.

ILZ001-002-007-009-015-016-024-260500-
NORTHWEST ILLINOIS

CITY           SKY/WX    TMP DP  RH WIND       PRES   REMARKS
MOLINE         CLEAR     16  12  84 CALM      30.17R
STERLING*      CLEAR      9   3  78 SE3       30.16S
SAVANNA*       CLEAR     14  12  91 CALM      30.17R
$$

ILZ003-004-008-010-011-017-018-260500-
NORTH CENTRAL ILLINOIS

CITY           SKY/WX    TMP DP  RH WIND       PRES   REMARKS
ROCKFORD       CLEAR     14  10  84 SE5       30.18F WCI   6
FREEPORT*      CLEAR     11   8  88 S7        30.16F WCI   0
ROCHELLE*      CLEAR     10   9  92 SE8       30.17F WCI  -1
DE KALB*       CLEAR     11   9  91 S6        30.17S FOG     WCI   2
PERU*          CLEAR     20  18  93 SE6       30.19S WCI  12
$$

ILZ005-006-012>014-019>023-260500-
NORTHEAST ILLINOIS

CITY           SKY/WX    TMP DP  RH WIND       PRES   REMARKS
CHICAGO-OHARE  FAIR      19  15  84 S5        30.19R WCI  12
CHICAGO-MIDWAY CLOUDY    24  18  77 S7        30.21R WCI  16
AURORA         CLEAR     15  10  80 SE3       30.20R HAZE
LANSING*       CLOUDY    23  19  83 S6        30.22R WCI  16
JOLIET*        CLOUDY    21  18  88 S3        30.21S
WAUKEGAN       CLEAR     14  12  92 SW3       30.18R
DUPAGE AIRPORT MOCLDY    15  12  88 S6        30.18S WCI   6
KANKAKEE*      CLOUDY   N/A N/A N/A S5        30.22R
WHEELING       MOCLDY    19  15  84 S3        30.21R
MORRIS*        CLOUDY    22  20  91 S7        30.20S WCI  14
ROMEOVILLE*    CLOUDY    19  18  93 SW3       30.20S
NORTHERLY ISL    N/A     23  17  78 S7          N/A  WCI  15
$$

LMZ740>746-260500-
SOUTHERN LAKE MICHIGAN

STATION/POSITION SKY/WX   TEMP    WIND        PRES    VSBY  WAVE
                          AIR SEA DIR/SP/G                  HT/PER
                          (F)     (DEG/KT/KT) (MB)    (MI)  (FT/S)
SOUTHERN BUOY              28 42  210/ 12/ 16 1022.9R         2/ 6
WAUKEGAN HARBOR            20     230/  7/  8   N/A
HARRISON CRIB              23     200/ 12/ 14   N/A
BURNHAM HARBOR             23     200/  6/  9   N/A
CALUMET HARBOR             24     170/  5/  8 1021.6S
MICHIGAN CITY              24     170/ 10/ 11   N/A
$$

ILZ025>027-034>036-040-047-049-050-058-095>099-260500-
WEST-CENTRAL ILLINOIS

CITY           SKY/WX    TMP DP  RH WIND       PRES   REMARKS
QUINCY         CLEAR     26  19  74 S3        30.15R
GALESBURG*     CLEAR     20  19  94 CALM      30.16R
MACOMB*        CLEAR     24  22  93 SE3       30.18R
JACKSONVILLE*  CLEAR     28  24  83 SE6       30.16F WCI  22
PITTSFIELD*    CLEAR     29  25  84 S3        30.17R
$$

ILZ028>032-037-038-041>044-048-051>054-059>061-260500-
CENTRAL ILLINOIS

CITY           SKY/WX    TMP DP  RH WIND       PRES   REMARKS
PONTIAC        CLEAR     23  20  90 E6        30.20S WCI  15
BLOOMINGTON    CLEAR     22  20  92 SE7       30.19S WCI  14
DECATUR        CLEAR     25  21  85 SE5       30.20S WCI  19
PEORIA         CLEAR     24  18  77 SE5       30.18S WCI  18
LACON*         CLEAR     21  17  86 SE7       30.18S WCI  12
LINCOLN*       CLEAR     24  22  91 SE3       30.20F
SPRINGFIELD    CLEAR     25  22  88 SE6       30.18F WCI  18
TAYLORVILLE    CLEAR     27  25  93 SE6       30.19F WCI  20
$$

ILZ033-039-045-046-055>057-062-063-260500-
EAST-CENTRAL ILLINOIS

CITY           SKY/WX    TMP DP  RH WIND       PRES   REMARKS
CHAMPAIGN      CLEAR     23  20  88 E6        30.20S WCI  16
DANVILLE*      CLOUDY    25  20  82 CALM      30.19F
RANTOUL*       CLEAR     26  22  84 SE6       30.19F WCI  19
MATTOON        CLEAR     27  22  81 CALM      30.19F
PARIS*         CLOUDY    28  24  83 CALM      30.23R
$$

ILZ079-100>102-260500-
SOUTHWEST ILLINOIS

CITY           SKY/WX    TMP DP  RH WIND       PRES   REMARKS
ALTON          CLEAR     26  22  87 SE6       30.19R WCI  19
BELLEVILLE     CLEAR     28  26  91 CALM      30.19S
CAHOKIA*       CLEAR     30  25  81 SE6       30.19S WCI  24
SPARTA*        CLEAR     28  24  86 CALM      30.20S
$$

ILZ064>066-069>071-074>076-080>082-084>086-088>090-092>094-260500-
SOUTH-CENTRAL ILLINOIS

CITY           SKY/WX    TMP DP  RH WIND       PRES   REMARKS
CARBONDALE     CLEAR     25  22  88 CALM      30.20S
CAIRO*         CLEAR     29  25  84 CALM      30.20F
EFFINGHAM*     CLEAR     25  22  89 CALM      30.21S
MARION         CLEAR     28  25  86 CALM      30.21F
MT. VERNON     CLEAR     25  18  74 NE3       30.21S
CENTRALIA*     CLEAR     26  23  88 CALM      30.20S
SALEM*           N/A     30  26  84 CALM      30.20F
METROPOLIS*    CLEAR     29  27  90 CALM        N/A
$$

ILZ067-068-072-073-078-083-087-091-260500-
SOUTHEAST ILLINOIS

CITY           SKY/WX    TMP DP  RH WIND       PRES   REMARKS
LAWRENCEVILLE  MOCLDY    29  23  78 NE3       30.22F
FLORA*         CLEAR     25  25  98 CALM      30.22S
FAIRFIELD*     CLEAR     28  24  86 CALM      30.21S
HARRISBURG*    CLEAR     27  26  96 CALM      30.22F
ROBINSON*      CLOUDY    29  24  81 NE3       30.23S
CARMI*         CLEAR     26  26  97 N3        30.21S
$$

ABBREVIATIONS USED IN REMARKS
   TC - TEMPERATURE IN CELSIUS
  WCI - WIND CHILL INDEX
   HX - HEAT INDEX
  VSB - VISIBILITY
$$




USA.gov is the U.S. government's official web portal to all federal, state and local government web resources and services.